Regional Weather Roundup
Issued by NWS

Home | Current Version | Previous Version | Text Only | Print | Product List | Glossary Off
Versions: 1 2 3 4 5 6 7 8 9 10 11 12 13 14 15 16 17 18 19 20 21 22 23 24 25 26 27 28 29 30 31 32 33 34 35 36 37 38 39 40 41 42 43 44 45 46 47 48 49 50

526
ASUS45 KSLC 272010
RWRUT

UTAH REGIONAL WEATHER ROUNDUP
NATIONAL WEATHER SERVICE SALT LAKE CITY UT
200 PM MDT THU JUL 27 2017

UTZ001>011-023>025-272100-

NORTHERN UTAH

CITY           SKY/WX    TMP DP  RH WIND       PRES   REMARKS
BRIGHAM CITY   SUNNY     84  45  25 SE6       30.16F
DUGWAY         MOSUNNY   87  49  26 NW3       30.14
HILL AFB       MOSUNNY   83  52  33 SW7       30.19F
LOGAN          SUNNY     84  54  35 VRB6      30.16F
OGDEN          SUNNY     84  50  30 W7        30.15F
SALT LAKE CITY MOSUNNY   86  56  35 NW8       30.14F
TOOELE VALLEY  SUNNY     86  54  32 N12       30.15F
WENDOVER       SUNNY     85  51  31 SE7       30.15F
HEBER CITY     SUNNY     88  43  20 SW6       30.21F
WEST JORDAN    SUNNY     84  63  49 N7        30.18S

$$

UTZ011>015-024>027-272100-

CENTRAL/NORTHEAST UTAH

CITY           SKY/WX    TMP DP  RH WIND       PRES   REMARKS
PROVO AIRPORT  SUNNY     84  61  45 NW6       30.16F HAZE
MOAB/CANYONLAN SUNNY     92  54  27 MISG      30.08F HX  90
DELTA          SUNNY     88  46  23 NW3       30.16F
PRICE          MOSUNNY   86  49  27 S10       30.22F
RICHFIELD      SUNNY     88  54  31 S6        30.19F
ROOSEVELT      CLOUDY    90  50  25 S5        30.18F
VERNAL         SUNNY     89  53  29 SW8G17    30.16F

$$

UTZ013>016-019>022-027-272100-

SOUTHERN UTAH

CITY           SKY/WX    TMP DP  RH WIND       PRES   REMARKS
BRYCE CANYON   PTSUNNY   73  53  49 SW6       30.37F
CEDAR CITY     MOSUNNY   82  56  40 VRB5      30.21F
MILFORD        SUNNY     91  49  23 S7        30.16F
ST GEORGE      CLEAR     94  61  33 W7        30.01F HX  94
HANKSVILLE     SUNNY     93  50  22 S6        30.12F HX  90
KANAB          MOSUNNY   90  57  33 SW8G16    30.18F
BLANDING       MOSUNNY   90  46  21 SW9       30.25F

$$

REGIONAL REPORTS     COLORADO/ARIZONA

CITY           SKY/WX    TMP DP  RH WIND       PRES   REMARKS
CRAIG, CO      SUNNY     85  47  26 VRB5      30.23F
GRAND JUNCTION SUNNY     93  47  20 VRB7      30.10F
RIFLE, CO      SUNNY     89  50  26 NW7       30.15F
MONTROSE, CO   CLOUDY    86  48  26 W9        30.19F
CORTEZ, CO     SUNNY     85  53  33 SW9       30.18F
COLORADO CITY    N/A     90  57  33 W3        30.20S
PAGE, AZ       MOSUNNY   95  50  21 VRB6      30.08F HX  92
GRAND CANYON   MOSUNNY   85  50  29 VRB6      30.29F
KINGMAN, AZ    SUNNY     96  53  23 MISG      30.05F HX  93
FLAGSTAFF, AZ  CLOUDY    69  59  70 S12       30.35R THUNDER

$$

REGIONAL REPORTS    NEVADA/IDAHO/WYOMING

CITY           SKY/WX    TMP DP  RH WIND       PRES   REMARKS
LAS VEGAS, NV  MOSUNNY   99  57  24 CALM      29.95F HX  98
ELY, NY          N/A    N/A N/A N/A MISG      30.26F
ELKO, NV       SUNNY     86  41  20 S9G17     30.18F
POCATELLO, ID  CLOUDY    82  47  29 VRB3      30.19F
BURLEY, ID     MOSUNNY   81  50  33 CALM      30.14F
FORT BRIDGER,    N/A     80  41  24 W22       30.34F
EVANSTON, WY   MOSUNNY   78  47  33 W13G28    30.33F
ROCK SPRINGS,  SUNNY     83  40  21 W14G20    30.27F
KEMMERER, WY     N/A     77  45  31 W13G20    30.33F

$$




USA.gov is the U.S. government's official web portal to all federal, state and local government web resources and services.